sat.trackr.live / text

‹ back to catalog

YAOGAN-30 01

NORAD 41473 · 2016-029A

PAYLOAD ACTIVE UNKNOWN

§ Identity

Operator
Country
PRC
Launch date
2016-05-15
Launch site
JSC
Launch vehicle
Mass (kg)
RCS (m²)
3.71

External: N2YO · Heavens-Above · Gunter

§ Orbital elements

Epoch: 2026-09-20T04:21:09.027072Z

Period
97.54 min
Inclination
97.8920°
Eccentricity
0.0014346
Mean motion
14.76246805 rev/d
Perigee alt
631.1 km
Apogee alt
651.3 km
Semi-major
7,019.3 km
B*
9.1968e-5
RAAN
310.9735°
Arg perigee
287.3488°
Mean anomaly
72.6153°
Rev number
55,768

§ Raw data

YAOGAN-30 011 41473U 16029A   26263.18135448  .00000587  00000+0  91968-4 0  99962 41473  97.8920 310.9735 0014346 287.3488  72.6153 14.76246805557680

JSON: /api/v1/satellites/41473 · /tle

For live sub-satellite position, see the globe view (requires WebGL).

§ Visibility from observer

Set your observer location to see the next 7 days of passes ≥ 10°. The values pass through the URL so the page stays shareable.

No JS? Fill the form by hand. The geolocation button needs JavaScript.